Regional Weather Roundup
Issued by NWS

Home | Current Version | Previous Version | Graphics & Text | Print | Product List | Glossary On
Versions: 1 2 3 4 5 6 7 8 9 10 11 12 13 14 15 16 17 18 19 20 21 22 23 24 25 26 27 28 29 30 31 32 33 34 35 36 37 38 39 40 41 42 43 44 45 46 47 48 49 50
000
ASUS43 KLSX 252357
RWRMO

WEATHER SUMMARY FOR MISSOURI
NATIONAL WEATHER SERVICE SPRINGFIELD MO
700 PM CDT MON SEP 25 2017

NOTE: "FAIR" INDICATES FEW OR NO CLOUDS BELOW 12,000 FEET WITH NO
       SIGNIFICANT WEATHER AND/OR OBSTRUCTIONS TO VISIBILITY.
       CURRENT SKY AND/OR WEATHER CONDITIONS ARE NOT AVAILABLE FOR
       CHILLICOTHE AND FARMINGTON.

MOZ001>031-035>038-043-044-053-054-260100-
...NORTHERN AND WESTERN MISSOURI...

CITY           SKY/WX    TMP DP  RH WIND       PRES   REMARKS
KANSAS CTY INT MOCLDY    75  68  78 N10       29.88R
6HR MIN TEMP:  75; 6HR MAX TEMP:  86;

LEE`S SUMMIT   CLEAR     81  64  56 SE8       29.88S
6HR MIN TEMP:  81; 6HR MAX TEMP:  88;

ST JOSEPH      CLOUDY    70  67  90 NE10      29.89S
6HR MIN TEMP:  70; 6HR MAX TEMP:  90;


$$
MOZ066>068-077>081-088>096-101>105-260100-
...SOUTHWEST MISSOURI...

CITY           SKY/WX    TMP DP  RH WIND       PRES   REMARKS
SPRINGFIELD    CLEAR     80  62  54 SE6       29.90R
6HR MIN TEMP:  80; 6HR MAX TEMP:  88;

JOPLIN         CLEAR     80  65  59 S5        29.88S
6HR MIN TEMP:  80; 6HR MAX TEMP:  88;

BRANSON        PTCLDY    81  59  47 SE6       29.93R

$$
MOZ032>034-039>042-045>050-055>058-069>072-260100-
...CENTRAL MISSOURI...

CITY           SKY/WX    TMP DP  RH WIND       PRES   REMARKS
COLUMBIA       NOT AVBL
JEFFERSON CITY CLEAR     81  67  62 E5        29.88R
6HR MIN TEMP:  79; 6HR MAX TEMP:  88; 6HR PCP: TRACE;

ROLLA          CLEAR     80  60  50 SE7       29.93R
6HR MIN TEMP:  80; 6HR MAX TEMP:  91;

SEDALIA        CLEAR     81  68  64 SE5       29.90R
6HR MIN TEMP:  81; 6HR MAX TEMP:  90;

WARRENSBURG    CLEAR     79  63  57 SE3       29.88R

$$
MOZ051-052-059>065-260100-
...EAST CENTRAL MISSOURI...

CITY           SKY/WX    TMP DP  RH WIND       PRES   REMARKS
ST LOUIS INTL  PTCLDY    87  62  43 S10       29.91R
6HR MIN TEMP:  87; 6HR MAX TEMP:  92;


$$
MOZ072>076-082>087-097>100-106>115-260100-
...SOUTH CENTRAL AND SOUTHEAST MISSOURI...

CITY           SKY/WX    TMP DP  RH WIND       PRES   REMARKS
CAPE GIRARDEAU CLEAR     80  63  55 SE5       29.92R
6HR MIN TEMP:  80; 6HR MAX TEMP:  90;

POPLAR BLUFF   CLEAR     79  65  62 CALM      29.91S
6HR MIN TEMP:  79; 6HR MAX TEMP:  90;

WEST PLAINS    CLEAR     81  61  50 SE6       29.95S
6HR MIN TEMP:  81; 6HR MAX TEMP:  88;


$$


USA.gov is the U.S. government's official web portal to all federal, state and local government web resources and services.